owner,sensor,date,latitude,longitude,vertical_datum,wind_speed,wind_to_direction,wind_speed_of_gust,qcFlag 
TCOON,ioos:station:TCOON:031:1,2014-05-01T00:00:00Z,28.4073,-96.7122,0.0,3.8,7.0,6.0,'1111122,1111122,1111122' 
TCOON,ioos:station:TCOON:031:1,2014-05-01T00:06:00Z,28.4073,-96.7122,0.0,4.5,10.0,6.0,'11111222,11111222,11111222' 
TCOON,ioos:station:TCOON:031:1,2014-05-01T00:12:00Z,28.4073,-96.7122,0.0,4.1,12.0,6.2,'11111222,11111222,11111222' 
TCOON,ioos:station:TCOON:031:1,2014-05-01T00:18:00Z,28.4073,-96.7122,0.0,2.7,14.0,4.4,'11111222,11111222,11111222' 
TCOON,ioos:station:TCOON:031:1,2014-05-01T00:24:00Z,28.4073,-96.7122,0.0,2.3,4.0,4.2,'11111222,11111222,11111222' 
TCOON,ioos:station:TCOON:031:1,2014-05-01T00:30:00Z,28.4073,-96.7122,0.0,3.8,8.0,5.0,'11111222,11111222,11111222' 
TCOON,ioos:station:TCOON:031:1,2014-05-01T00:36:00Z,28.4073,-96.7122,0.0,3.0,14.0,3.9,'11111222,11111222,11111222' 
TCOON,ioos:station:TCOON:031:1,2014-05-01T00:42:00Z,28.4073,-96.7122,0.0,2.9,8.0,4.1,'11111222,11111222,11111222' 
TCOON,ioos:station:TCOON:031:1,2014-05-01T00:48:00Z,28.4073,-96.7122,0.0,2.5,10.0,4.7,'11111222,11111222,11111222' 
TCOON,ioos:station:TCOON:031:1,2014-05-01T00:54:00Z,28.4073,-96.7122,0.0,2.0,10.0,3.7,'11111222,11111222,11111222' 
TCOON,ioos:station:TCOON:031:1,2014-05-01T01:00:00Z,28.4073,-96.7122,0.0,2.0,10.0,3.7,'1111122,1111122,1111122' 
TCOON,ioos:station:TCOON:031:1,2014-05-01T01:06:00Z,28.4073,-96.7122,0.0,2.2,9.0,3.2,'11111222,11111222,11111222' 
TCOON,ioos:station:TCOON:031:1,2014-05-01T01:12:00Z,28.4073,-96.7122,0.0,1.9,16.0,3.0,'11111222,11111222,11111222' 
TCOON,ioos:station:TCOON:031:1,2014-05-01T01:18:00Z,28.4073,-96.7122,0.0,1.9,11.0,3.3,'11111222,11111222,11111222' 
TCOON,ioos:station:TCOON:031:1,2014-05-01T01:24:00Z,28.4073,-96.7122,0.0,1.7,14.0,2.8,'11111222,11111222,11111222' 
TCOON,ioos:station:TCOON:031:1,2014-05-01T01:30:00Z,28.4073,-96.7122,0.0,1.9,12.0,2.5,'11111222,11111222,11111222' 
TCOON,ioos:station:TCOON:031:1,2014-05-01T01:36:00Z,28.4073,-96.7122,0.0,2.5,18.0,3.7,'11111222,11111222,11111222' 
TCOON,ioos:station:TCOON:031:1,2014-05-01T01:42:00Z,28.4073,-96.7122,0.0,2.1,18.0,3.0,'11111222,11111222,11111222' 
TCOON,ioos:station:TCOON:031:1,2014-05-01T01:48:00Z,28.4073,-96.7122,0.0,2.3,12.0,3.2,'11111222,11111222,11111222' 
TCOON,ioos:station:TCOON:031:1,2014-05-01T01:54:00Z,28.4073,-96.7122,0.0,2.0,9.0,3.4,'11111222,11111222,11111222' 
TCOON,ioos:station:TCOON:031:1,2014-05-01T02:00:00Z,28.4073,-96.7122,0.0,2.0,9.0,3.4,'1111122,1111122,1111122' 
TCOON,ioos:station:TCOON:031:1,2014-05-01T02:06:00Z,28.4073,-96.7122,0.0,1.5,12.0,2.6,'11111222,11111222,11111222' 
TCOON,ioos:station:TCOON:031:1,2014-05-01T02:12:00Z,28.4073,-96.7122,0.0,1.5,15.0,2.5,'11111222,11111222,11111222' 
TCOON,ioos:station:TCOON:031:1,2014-05-01T02:18:00Z,28.4073,-96.7122,0.0,2.0,14.0,3.2,'11111222,11111222,11111222' 
TCOON,ioos:station:TCOON:031:1,2014-05-01T02:24:00Z,28.4073,-96.7122,0.0,2.5,15.0,3.4,'11111222,11111222,11111222' 
TCOON,ioos:station:TCOON:031:1,2014-05-01T02:30:00Z,28.4073,-96.7122,0.0,2.2,6.0,3.7,'11111222,11111222,11111222' 
TCOON,ioos:station:TCOON:031:1,2014-05-01T02:36:00Z,28.4073,-96.7122,0.0,2.3,9.0,3.5,'11111222,11111222,11111222' 
TCOON,ioos:station:TCOON:031:1,2014-05-01T02:42:00Z,28.4073,-96.7122,0.0,3.0,11.0,4.2,'11111222,11111222,11111222' 
TCOON,ioos:station:TCOON:031:1,2014-05-01T02:48:00Z,28.4073,-96.7122,0.0,2.7,13.0,3.7,'11111222,11111222,11111222' 
TCOON,ioos:station:TCOON:031:1,2014-05-01T02:54:00Z,28.4073,-96.7122,0.0,2.2,28.0,3.5,'11111222,11111222,11111222' 
TCOON,ioos:station:TCOON:031:1,2014-05-01T03:00:00Z,28.4073,-96.7122,0.0,2.2,28.0,3.5,'1111122,1111122,1111122' 
TCOON,ioos:station:TCOON:031:1,2014-05-01T03:06:00Z,28.4073,-96.7122,0.0,3.2,8.0,5.2,'11111222,11111222,11111222' 
TCOON,ioos:station:TCOON:031:1,2014-05-01T03:12:00Z,28.4073,-96.7122,0.0,3.3,18.0,4.8,'11111222,11111222,11111222' 
TCOON,ioos:station:TCOON:031:1,2014-05-01T03:18:00Z,28.4073,-96.7122,0.0,3.1,14.0,4.4,'11111222,11111222,11111222' 
TCOON,ioos:station:TCOON:031:1,2014-05-01T03:24:00Z,28.4073,-96.7122,0.0,2.4,15.0,4.1,'11111222,11111222,11111222' 
TCOON,ioos:station:TCOON:031:1,2014-05-01T03:30:00Z,28.4073,-96.7122,0.0,2.4,21.0,4.1,'11111222,11111222,11111222' 
TCOON,ioos:station:TCOON:031:1,2014-05-01T03:36:00Z,28.4073,-96.7122,0.0,3.5,21.0,5.3,'11111222,11111222,11111222' 
TCOON,ioos:station:TCOON:031:1,2014-05-01T03:42:00Z,28.4073,-96.7122,0.0,3.6,19.0,4.7,'11111222,11111222,11111222' 
TCOON,ioos:station:TCOON:031:1,2014-05-01T03:48:00Z,28.4073,-96.7122,0.0,3.1,23.0,4.9,'11111222,11111222,11111222' 
TCOON,ioos:station:TCOON:031:1,2014-05-01T03:54:00Z,28.4073,-96.7122,0.0,3.2,22.0,4.9,'11111222,11111222,11111222' 
TCOON,ioos:station:TCOON:031:1,2014-05-01T04:00:00Z,28.4073,-96.7122,0.0,3.2,22.0,4.9,'1111122,1111122,1111122' 
TCOON,ioos:station:TCOON:031:1,2014-05-01T04:06:00Z,28.4073,-96.7122,0.0,3.3,25.0,5.3,'11111222,11111222,11111222' 
TCOON,ioos:station:TCOON:031:1,2014-05-01T04:12:00Z,28.4073,-96.7122,0.0,4.4,22.0,5.3,'11111222,11111222,11111222' 
TCOON,ioos:station:TCOON:031:1,2014-05-01T04:18:00Z,28.4073,-96.7122,0.0,4.5,24.0,6.0,'11111222,11111222,11111222' 
TCOON,ioos:station:TCOON:031:1,2014-05-01T04:24:00Z,28.4073,-96.7122,0.0,3.1,30.0,6.5,'11111222,11111222,11111222' 
TCOON,ioos:station:TCOON:031:1,2014-05-01T04:30:00Z,28.4073,-96.7122,0.0,3.4,27.0,4.8,'11111222,11111222,11111222' 
TCOON,ioos:station:TCOON:031:1,2014-05-01T04:36:00Z,28.4073,-96.7122,0.0,3.6,22.0,4.9,'11111222,11111222,11111222' 
TCOON,ioos:station:TCOON:031:1,2014-05-01T04:42:00Z,28.4073,-96.7122,0.0,3.2,22.0,4.6,'11111222,11111222,11111222' 
TCOON,ioos:station:TCOON:031:1,2014-05-01T04:48:00Z,28.4073,-96.7122,0.0,2.9,26.0,4.5,'11111222,11111222,11111222' 
TCOON,ioos:station:TCOON:031:1,2014-05-01T04:54:00Z,28.4073,-96.7122,0.0,3.1,28.0,4.3,'11111222,11111222,11111222' 
TCOON,ioos:station:TCOON:031:1,2014-05-01T05:00:00Z,28.4073,-96.7122,0.0,3.1,28.0,4.3,'1111122,1111122,1111122' 
TCOON,ioos:station:TCOON:031:1,2014-05-01T05:06:00Z,28.4073,-96.7122,0.0,3.3,27.0,5.0,'11111222,11111222,11111222' 
TCOON,ioos:station:TCOON:031:1,2014-05-01T05:12:00Z,28.4073,-96.7122,0.0,2.7,33.0,4.4,'11111222,11111222,11111222' 
TCOON,ioos:station:TCOON:031:1,2014-05-01T05:18:00Z,28.4073,-96.7122,0.0,2.7,27.0,4.3,'11111222,11111222,11111222' 
TCOON,ioos:station:TCOON:031:1,2014-05-01T05:24:00Z,28.4073,-96.7122,0.0,2.8,34.0,4.4,'11111222,11111222,11111222' 
TCOON,ioos:station:TCOON:031:1,2014-05-01T05:30:00Z,28.4073,-96.7122,0.0,2.7,34.0,5.1,'11111222,11111222,11111222' 
TCOON,ioos:station:TCOON:031:1,2014-05-01T05:36:00Z,28.4073,-96.7122,0.0,3.4,28.0,4.4,'11111222,11111222,11111222' 
TCOON,ioos:station:TCOON:031:1,2014-05-01T05:42:00Z,28.4073,-96.7122,0.0,3.1,23.0,4.6,'11111222,11111222,11111222' 
TCOON,ioos:station:TCOON:031:1,2014-05-01T05:48:00Z,28.4073,-96.7122,0.0,3.7,22.0,5.2,'11111222,11111222,11111222' 
TCOON,ioos:station:TCOON:031:1,2014-05-01T05:54:00Z,28.4073,-96.7122,0.0,2.9,26.0,4.0,'11111222,11111222,11111222' 
TCOON,ioos:station:TCOON:031:1,2014-05-01T06:00:00Z,28.4073,-96.7122,0.0,3.0,30.0,5.0,'11111222,11111222,11111222' 
TCOON,ioos:station:TCOON:031:1,2014-05-01T06:06:00Z,28.4073,-96.7122,0.0,2.9,26.0,5.0,'11111222,11111222,11111222' 
TCOON,ioos:station:TCOON:031:1,2014-05-01T06:12:00Z,28.4073,-96.7122,0.0,2.7,22.0,4.8,'11111222,11111222,11111222' 
TCOON,ioos:station:TCOON:031:1,2014-05-01T06:18:00Z,28.4073,-96.7122,0.0,3.0,20.0,4.4,'11111222,11111222,11111222' 
TCOON,ioos:station:TCOON:031:1,2014-05-01T06:24:00Z,28.4073,-96.7122,0.0,3.0,20.0,4.4,'1111122,1111122,1111122' 
TCOON,ioos:station:TCOON:031:1,2014-05-01T06:30:00Z,28.4073,-96.7122,0.0,2.5,23.0,4.7,'11111222,11111222,11111222' 
TCOON,ioos:station:TCOON:031:1,2014-05-01T06:36:00Z,28.4073,-96.7122,0.0,2.6,18.0,4.5,'11111222,11111222,11111222' 
TCOON,ioos:station:TCOON:031:1,2014-05-01T06:42:00Z,28.4073,-96.7122,0.0,3.0,24.0,4.5,'11111222,11111222,11111222' 
TCOON,ioos:station:TCOON:031:1,2014-05-01T06:48:00Z,28.4073,-96.7122,0.0,3.3,21.0,4.5,'11111222,11111222,11111222' 
TCOON,ioos:station:TCOON:031:1,2014-05-01T06:54:00Z,28.4073,-96.7122,0.0,2.4,27.0,3.6,'11111222,11111222,11111222' 
TCOON,ioos:station:TCOON:031:1,2014-05-01T07:00:00Z,28.4073,-96.7122,0.0,2.4,27.0,3.6,'1111122,1111122,1111122' 
TCOON,ioos:station:TCOON:031:1,2014-05-01T07:06:00Z,28.4073,-96.7122,0.0,2.4,28.0,3.7,'11111222,11111222,11111222' 
TCOON,ioos:station:TCOON:031:1,2014-05-01T07:12:00Z,28.4073,-96.7122,0.0,2.7,25.0,3.8,'11111222,11111222,11111222' 
TCOON,ioos:station:TCOON:031:1,2014-05-01T07:18:00Z,28.4073,-96.7122,0.0,2.8,27.0,4.4,'11111222,11111222,11111222' 
TCOON,ioos:station:TCOON:031:1,2014-05-01T07:24:00Z,28.4073,-96.7122,0.0,2.5,30.0,4.6,'11111222,11111222,11111222' 
TCOON,ioos:station:TCOON:031:1,2014-05-01T07:30:00Z,28.4073,-96.7122,0.0,2.6,38.0,4.4,'11111222,11111222,11111222' 
TCOON,ioos:station:TCOON:031:1,2014-05-01T07:36:00Z,28.4073,-96.7122,0.0,2.7,41.0,3.9,'11111222,11111222,11111222' 
TCOON,ioos:station:TCOON:031:1,2014-05-01T07:42:00Z,28.4073,-96.7122,0.0,3.1,34.0,4.2,'11111222,11111222,11111222' 
TCOON,ioos:station:TCOON:031:1,2014-05-01T07:48:00Z,28.4073,-96.7122,0.0,3.7,32.0,5.1,'11111222,11111222,11111222' 
TCOON,ioos:station:TCOON:031:1,2014-05-01T07:54:00Z,28.4073,-96.7122,0.0,3.6,35.0,5.5,'11111222,11111222,11111222' 
TCOON,ioos:station:TCOON:031:1,2014-05-01T08:00:00Z,28.4073,-96.7122,0.0,3.6,35.0,5.5,'1111122,1111122,1111122' 
TCOON,ioos:station:TCOON:031:1,2014-05-01T08:06:00Z,28.4073,-96.7122,0.0,3.5,31.0,5.8,'11111222,11111222,11111222' 
TCOON,ioos:station:TCOON:031:1,2014-05-01T08:12:00Z,28.4073,-96.7122,0.0,3.9,25.0,5.0,'11111222,11111222,11111222' 
TCOON,ioos:station:TCOON:031:1,2014-05-01T08:18:00Z,28.4073,-96.7122,0.0,3.2,25.0,5.0,'11111222,11111222,11111222' 
TCOON,ioos:station:TCOON:031:1,2014-05-01T08:24:00Z,28.4073,-96.7122,0.0,3.6,33.0,5.3,'11111222,11111222,11111222' 
TCOON,ioos:station:TCOON:031:1,2014-05-01T08:30:00Z,28.4073,-96.7122,0.0,3.4,30.0,5.8,'11111222,11111222,11111222' 
TCOON,ioos:station:TCOON:031:1,2014-05-01T08:36:00Z,28.4073,-96.7122,0.0,3.2,28.0,5.3,'11111222,11111222,11111222' 
TCOON,ioos:station:TCOON:031:1,2014-05-01T08:42:00Z,28.4073,-96.7122,0.0,3.3,24.0,4.7,'11111222,11111222,11111222' 
TCOON,ioos:station:TCOON:031:1,2014-05-01T08:48:00Z,28.4073,-96.7122,0.0,3.9,25.0,5.3,'11111222,11111222,11111222' 
TCOON,ioos:station:TCOON:031:1,2014-05-01T08:54:00Z,28.4073,-96.7122,0.0,3.4,22.0,5.0,'11111222,11111222,11111222' 
TCOON,ioos:station:TCOON:031:1,2014-05-01T09:00:00Z,28.4073,-96.7122,0.0,3.4,22.0,5.0,'1111122,1111122,1111122' 
TCOON,ioos:station:TCOON:031:1,2014-05-01T09:06:00Z,28.4073,-96.7122,0.0,3.3,25.0,5.1,'11111222,11111222,11111222' 
TCOON,ioos:station:TCOON:031:1,2014-05-01T09:12:00Z,28.4073,-96.7122,0.0,3.2,30.0,5.4,'11111222,11111222,11111222' 
TCOON,ioos:station:TCOON:031:1,2014-05-01T09:18:00Z,28.4073,-96.7122,0.0,3.7,23.0,5.3,'11111222,11111222,11111222' 
TCOON,ioos:station:TCOON:031:1,2014-05-01T09:24:00Z,28.4073,-96.7122,0.0,2.4,22.0,4.6,'11111222,11111222,11111222' 
TCOON,ioos:station:TCOON:031:1,2014-05-01T09:30:00Z,28.4073,-96.7122,0.0,2.6,21.0,4.4,'11111222,11111222,11111222' 
TCOON,ioos:station:TCOON:031:1,2014-05-01T09:36:00Z,28.4073,-96.7122,0.0,2.2,16.0,4.3,'11111222,11111222,11111222' 
TCOON,ioos:station:TCOON:031:1,2014-05-01T09:42:00Z,28.4073,-96.7122,0.0,2.9,19.0,3.7,'11111222,11111222,11111222' 
TCOON,ioos:station:TCOON:031:1,2014-05-01T09:48:00Z,28.4073,-96.7122,0.0,2.8,22.0,4.0,'11111222,11111222,11111222' 
TCOON,ioos:station:TCOON:031:1,2014-05-01T09:54:00Z,28.4073,-96.7122,0.0,3.0,20.0,4.7,'11111222,11111222,11111222' 
TCOON,ioos:station:TCOON:031:1,2014-05-01T10:00:00Z,28.4073,-96.7122,0.0,3.0,20.0,4.7,'1111122,1111122,1111122' 
TCOON,ioos:station:TCOON:031:1,2014-05-01T10:06:00Z,28.4073,-96.7122,0.0,2.8,20.0,4.1,'11111222,11111222,11111222' 
TCOON,ioos:station:TCOON:031:1,2014-05-01T10:12:00Z,28.4073,-96.7122,0.0,2.9,19.0,4.6,'11111222,11111222,11111222' 
TCOON,ioos:station:TCOON:031:1,2014-05-01T10:18:00Z,28.4073,-96.7122,0.0,2.7,16.0,4.1,'11111222,11111222,11111222' 
TCOON,ioos:station:TCOON:031:1,2014-05-01T10:24:00Z,28.4073,-96.7122,0.0,2.6,14.0,3.7,'11111222,11111222,11111222' 
TCOON,ioos:station:TCOON:031:1,2014-05-01T10:30:00Z,28.4073,-96.7122,0.0,2.5,12.0,3.9,'11111222,11111222,11111222' 
TCOON,ioos:station:TCOON:031:1,2014-05-01T10:36:00Z,28.4073,-96.7122,0.0,2.7,13.0,3.5,'11111222,11111222,11111222' 
TCOON,ioos:station:TCOON:031:1,2014-05-01T10:42:00Z,28.4073,-96.7122,0.0,2.7,14.0,3.8,'11111222,11111222,11111222' 
TCOON,ioos:station:TCOON:031:1,2014-05-01T10:48:00Z,28.4073,-96.7122,0.0,2.6,14.0,3.8,'11111222,11111222,11111222' 
TCOON,ioos:station:TCOON:031:1,2014-05-01T10:54:00Z,28.4073,-96.7122,0.0,2.4,16.0,3.7,'11111222,11111222,11111222' 
TCOON,ioos:station:TCOON:031:1,2014-05-01T11:00:00Z,28.4073,-96.7122,0.0,2.4,16.0,3.7,'1111122,1111122,1111122' 
TCOON,ioos:station:TCOON:031:1,2014-05-01T11:06:00Z,28.4073,-96.7122,0.0,2.3,20.0,3.4,'11111222,11111222,11111222' 
TCOON,ioos:station:TCOON:031:1,2014-05-01T11:12:00Z,28.4073,-96.7122,0.0,1.7,20.0,2.7,'11111222,11111222,11111222' 
TCOON,ioos:station:TCOON:031:1,2014-05-01T11:18:00Z,28.4073,-96.7122,0.0,1.8,17.0,3.1,'11111222,11111222,11111222' 
TCOON,ioos:station:TCOON:031:1,2014-05-01T11:24:00Z,28.4073,-96.7122,0.0,1.7,13.0,2.3,'11111222,11111222,11111222' 
TCOON,ioos:station:TCOON:031:1,2014-05-01T11:30:00Z,28.4073,-96.7122,0.0,2.0,6.0,2.7,'11111222,11111222,11111222' 
TCOON,ioos:station:TCOON:031:1,2014-05-01T11:36:00Z,28.4073,-96.7122,0.0,1.8,4.0,2.4,'11111222,11111222,11111222' 
TCOON,ioos:station:TCOON:031:1,2014-05-01T11:42:00Z,28.4073,-96.7122,0.0,1.9,359.0,2.6,'11111222,11111222,11111222' 
TCOON,ioos:station:TCOON:031:1,2014-05-01T11:48:00Z,28.4073,-96.7122,0.0,1.8,357.0,2.5,'11111222,11111222,11111222' 
TCOON,ioos:station:TCOON:031:1,2014-05-01T11:54:00Z,28.4073,-96.7122,0.0,1.6,357.0,2.0,'11111222,11111222,11111222' 
TCOON,ioos:station:TCOON:031:1,2014-05-01T12:00:00Z,28.4073,-96.7122,0.0,1.6,357.0,2.0,'1111122,1111122,1111122' 
TCOON,ioos:station:TCOON:031:1,2014-05-01T12:06:00Z,28.4073,-96.7122,0.0,2.0,3.0,2.3,'11111222,11111222,11111222' 
TCOON,ioos:station:TCOON:031:1,2014-05-01T12:12:00Z,28.4073,-96.7122,0.0,1.9,356.0,2.6,'11111222,11111222,11111222' 
TCOON,ioos:station:TCOON:031:1,2014-05-01T12:18:00Z,28.4073,-96.7122,0.0,1.9,1.0,2.5,'11111222,11111222,11111222' 
TCOON,ioos:station:TCOON:031:1,2014-05-01T12:24:00Z,28.4073,-96.7122,0.0,2.2,6.0,2.9,'11111222,11111222,11111222' 
TCOON,ioos:station:TCOON:031:1,2014-05-01T12:30:00Z,28.4073,-96.7122,0.0,2.2,7.0,3.2,'11111222,11111222,11111222' 
TCOON,ioos:station:TCOON:031:1,2014-05-01T12:36:00Z,28.4073,-96.7122,0.0,2.4,10.0,3.3,'11111222,11111222,11111222' 
TCOON,ioos:station:TCOON:031:1,2014-05-01T12:42:00Z,28.4073,-96.7122,0.0,2.1,9.0,3.9,'11111222,11111222,11111222' 
TCOON,ioos:station:TCOON:031:1,2014-05-01T12:48:00Z,28.4073,-96.7122,0.0,2.4,9.0,3.5,'11111222,11111222,11111222' 
TCOON,ioos:station:TCOON:031:1,2014-05-01T12:54:00Z,28.4073,-96.7122,0.0,2.5,18.0,4.4,'11111222,11111222,11111222' 
TCOON,ioos:station:TCOON:031:1,2014-05-01T13:00:00Z,28.4073,-96.7122,0.0,2.5,18.0,4.4,'1111122,1111122,1111122' 
TCOON,ioos:station:TCOON:031:1,2014-05-01T13:06:00Z,28.4073,-96.7122,0.0,3.0,16.0,4.1,'11111222,11111222,11111222' 
TCOON,ioos:station:TCOON:031:1,2014-05-01T13:12:00Z,28.4073,-96.7122,0.0,2.9,11.0,4.7,'11111222,11111222,11111222' 
TCOON,ioos:station:TCOON:031:1,2014-05-01T13:18:00Z,28.4073,-96.7122,0.0,3.6,12.0,4.8,'11111222,11111222,11111222' 
TCOON,ioos:station:TCOON:031:1,2014-05-01T13:24:00Z,28.4073,-96.7122,0.0,4.0,19.0,5.8,'11111222,11111222,11111222' 
TCOON,ioos:station:TCOON:031:1,2014-05-01T13:30:00Z,28.4073,-96.7122,0.0,4.3,21.0,6.5,'11111222,11111222,11111222' 
TCOON,ioos:station:TCOON:031:1,2014-05-01T13:36:00Z,28.4073,-96.7122,0.0,3.3,25.0,6.2,'11111222,11111222,11111222' 
TCOON,ioos:station:TCOON:031:1,2014-05-01T13:42:00Z,28.4073,-96.7122,0.0,5.0,24.0,7.2,'11111222,11111222,11111222' 
TCOON,ioos:station:TCOON:031:1,2014-05-01T13:48:00Z,28.4073,-96.7122,0.0,5.1,16.0,7.4,'11111222,11111222,11111222' 
TCOON,ioos:station:TCOON:031:1,2014-05-01T13:54:00Z,28.4073,-96.7122,0.0,3.8,21.0,6.9,'11111222,11111222,11111222' 
TCOON,ioos:station:TCOON:031:1,2014-05-01T14:00:00Z,28.4073,-96.7122,0.0,3.8,21.0,6.9,'1111122,1111122,1111122' 
TCOON,ioos:station:TCOON:031:1,2014-05-01T14:06:00Z,28.4073,-96.7122,0.0,5.5,32.0,8.2,'11111222,11111222,11111222' 
TCOON,ioos:station:TCOON:031:1,2014-05-01T14:12:00Z,28.4073,-96.7122,0.0,4.7,30.0,6.6,'11111222,11111222,11111222' 
TCOON,ioos:station:TCOON:031:1,2014-05-01T14:18:00Z,28.4073,-96.7122,0.0,3.5,23.0,6.1,'11111222,11111222,11111222' 
TCOON,ioos:station:TCOON:031:1,2014-05-01T14:24:00Z,28.4073,-96.7122,0.0,2.9,25.0,5.3,'11111222,11111222,11111222' 
TCOON,ioos:station:TCOON:031:1,2014-05-01T14:30:00Z,28.4073,-96.7122,0.0,4.1,32.0,6.1,'11111222,11111222,11111222' 
TCOON,ioos:station:TCOON:031:1,2014-05-01T14:36:00Z,28.4073,-96.7122,0.0,2.7,31.0,5.4,'11111222,11111222,11111222' 
TCOON,ioos:station:TCOON:031:1,2014-05-01T14:42:00Z,28.4073,-96.7122,0.0,3.5,29.0,5.5,'11111222,11111222,11111222' 
TCOON,ioos:station:TCOON:031:1,2014-05-01T14:48:00Z,28.4073,-96.7122,0.0,4.0,43.0,5.6,'11111222,11111222,11111222' 
TCOON,ioos:station:TCOON:031:1,2014-05-01T14:54:00Z,28.4073,-96.7122,0.0,3.9,32.0,5.9,'11111222,11111222,11111222' 
TCOON,ioos:station:TCOON:031:1,2014-05-01T15:00:00Z,28.4073,-96.7122,0.0,3.9,32.0,5.9,'1111122,1111122,1111122' 
TCOON,ioos:station:TCOON:031:1,2014-05-01T15:06:00Z,28.4073,-96.7122,0.0,3.5,29.0,4.5,'11111222,11111222,11111222' 
TCOON,ioos:station:TCOON:031:1,2014-05-01T15:12:00Z,28.4073,-96.7122,0.0,3.4,23.0,4.9,'11111222,11111222,11111222' 
TCOON,ioos:station:TCOON:031:1,2014-05-01T15:18:00Z,28.4073,-96.7122,0.0,3.5,33.0,5.8,'11111222,11111222,11111222' 
TCOON,ioos:station:TCOON:031:1,2014-05-01T15:24:00Z,28.4073,-96.7122,0.0,4.2,46.0,6.0,'11111222,11111222,11111222' 
TCOON,ioos:station:TCOON:031:1,2014-05-01T15:30:00Z,28.4073,-96.7122,0.0,2.4,48.0,5.0,'11111222,11111222,11111222' 
TCOON,ioos:station:TCOON:031:1,2014-05-01T15:36:00Z,28.4073,-96.7122,0.0,3.2,52.0,5.1,'11111222,11111222,11111222' 
TCOON,ioos:station:TCOON:031:1,2014-05-01T15:42:00Z,28.4073,-96.7122,0.0,3.9,36.0,5.1,'11111222,11111222,11111222' 
TCOON,ioos:station:TCOON:031:1,2014-05-01T15:48:00Z,28.4073,-96.7122,0.0,4.0,43.0,5.5,'11111222,11111222,11111222' 
TCOON,ioos:station:TCOON:031:1,2014-05-01T15:54:00Z,28.4073,-96.7122,0.0,3.0,29.0,5.8,'11111222,11111222,11111222' 
TCOON,ioos:station:TCOON:031:1,2014-05-01T16:00:00Z,28.4073,-96.7122,0.0,3.0,29.0,5.8,'1111122,1111122,1111122' 
TCOON,ioos:station:TCOON:031:1,2014-05-01T16:06:00Z,28.4073,-96.7122,0.0,2.9,25.0,4.4,'11111222,11111222,11111222' 
TCOON,ioos:station:TCOON:031:1,2014-05-01T16:12:00Z,28.4073,-96.7122,0.0,3.9,41.0,5.1,'11111222,11111222,11111222' 
TCOON,ioos:station:TCOON:031:1,2014-05-01T16:18:00Z,28.4073,-96.7122,0.0,3.1,38.0,4.6,'11111222,11111222,11111222' 
TCOON,ioos:station:TCOON:031:1,2014-05-01T16:24:00Z,28.4073,-96.7122,0.0,2.9,60.0,5.4,'11111222,11111222,11111222' 
TCOON,ioos:station:TCOON:031:1,2014-05-01T16:30:00Z,28.4073,-96.7122,0.0,3.0,52.0,4.9,'11111222,11111222,11111222' 
TCOON,ioos:station:TCOON:031:1,2014-05-01T16:36:00Z,28.4073,-96.7122,0.0,3.1,59.0,5.0,'11111222,11111222,11111222' 
TCOON,ioos:station:TCOON:031:1,2014-05-01T16:42:00Z,28.4073,-96.7122,0.0,2.0,42.0,5.5,'11111222,11111222,11111222' 
TCOON,ioos:station:TCOON:031:1,2014-05-01T16:48:00Z,28.4073,-96.7122,0.0,4.1,53.0,5.4,'11111222,11111222,11111222' 
TCOON,ioos:station:TCOON:031:1,2014-05-01T16:54:00Z,28.4073,-96.7122,0.0,3.8,53.0,5.0,'11111222,11111222,11111222' 
TCOON,ioos:station:TCOON:031:1,2014-05-01T17:00:00Z,28.4073,-96.7122,0.0,3.8,53.0,5.0,'1111122,1111122,1111122' 
TCOON,ioos:station:TCOON:031:1,2014-05-01T17:06:00Z,28.4073,-96.7122,0.0,3.7,60.0,5.2,'11111222,11111222,11111222' 
TCOON,ioos:station:TCOON:031:1,2014-05-01T17:12:00Z,28.4073,-96.7122,0.0,3.0,14.0,5.1,'11111222,11111222,11111222' 
TCOON,ioos:station:TCOON:031:1,2014-05-01T17:18:00Z,28.4073,-96.7122,0.0,2.2,29.0,4.6,'11111222,11111222,11111222' 
TCOON,ioos:station:TCOON:031:1,2014-05-01T17:24:00Z,28.4073,-96.7122,0.0,1.9,24.0,3.8,'11111222,11111222,11111222' 
TCOON,ioos:station:TCOON:031:1,2014-05-01T17:30:00Z,28.4073,-96.7122,0.0,2.9,19.0,3.7,'11111222,11111222,11111222' 
TCOON,ioos:station:TCOON:031:1,2014-05-01T17:36:00Z,28.4073,-96.7122,0.0,2.6,4.0,4.3,'11111222,11111222,11111222' 
TCOON,ioos:station:TCOON:031:1,2014-05-01T17:42:00Z,28.4073,-96.7122,0.0,2.3,9.0,3.8,'11111222,11111222,11111222' 
TCOON,ioos:station:TCOON:031:1,2014-05-01T17:48:00Z,28.4073,-96.7122,0.0,2.1,1.0,3.5,'11111222,11111222,11111222' 
TCOON,ioos:station:TCOON:031:1,2014-05-01T17:54:00Z,28.4073,-96.7122,0.0,2.6,331.0,3.1,'11111222,11111222,11111222' 
TCOON,ioos:station:TCOON:031:1,2014-05-01T18:00:00Z,28.4073,-96.7122,0.0,2.6,331.0,3.1,'1111122,1111122,1111122' 
TCOON,ioos:station:TCOON:031:1,2014-05-01T18:06:00Z,28.4073,-96.7122,0.0,2.4,328.0,4.0,'11111222,11111222,11111222' 
TCOON,ioos:station:TCOON:031:1,2014-05-01T18:12:00Z,28.4073,-96.7122,0.0,3.2,2.0,4.4,'11111222,11111222,11111222' 
TCOON,ioos:station:TCOON:031:1,2014-05-01T18:18:00Z,28.4073,-96.7122,0.0,3.1,4.0,4.6,'11111222,11111222,11111222' 
TCOON,ioos:station:TCOON:031:1,2014-05-01T18:24:00Z,28.4073,-96.7122,0.0,2.2,9.0,5.1,'11111222,11111222,11111222' 
TCOON,ioos:station:TCOON:031:1,2014-05-01T18:30:00Z,28.4073,-96.7122,0.0,3.0,19.0,5.5,'11111222,11111222,11111222' 
TCOON,ioos:station:TCOON:031:1,2014-05-01T18:36:00Z,28.4073,-96.7122,0.0,2.3,344.0,5.0,'11111222,11111222,11111222' 
TCOON,ioos:station:TCOON:031:1,2014-05-01T18:42:00Z,28.4073,-96.7122,0.0,3.5,19.0,5.9,'11111222,11111222,11111222' 
TCOON,ioos:station:TCOON:031:1,2014-05-01T18:48:00Z,28.4073,-96.7122,0.0,3.7,20.0,5.9,'11111222,11111222,11111222' 
TCOON,ioos:station:TCOON:031:1,2014-05-01T18:54:00Z,28.4073,-96.7122,0.0,3.6,22.0,5.3,'11111222,11111222,11111222' 
TCOON,ioos:station:TCOON:031:1,2014-05-01T19:00:00Z,28.4073,-96.7122,0.0,3.6,22.0,5.3,'1111122,1111122,1111122' 
TCOON,ioos:station:TCOON:031:1,2014-05-01T19:06:00Z,28.4073,-96.7122,0.0,3.3,19.0,5.4,'11111222,11111222,11111222' 
TCOON,ioos:station:TCOON:031:1,2014-05-01T19:12:00Z,28.4073,-96.7122,0.0,2.5,15.0,4.0,'11111222,11111222,11111222' 
TCOON,ioos:station:TCOON:031:1,2014-05-01T19:18:00Z,28.4073,-96.7122,0.0,3.6,37.0,4.7,'11111222,11111222,11111222' 
TCOON,ioos:station:TCOON:031:1,2014-05-01T19:24:00Z,28.4073,-96.7122,0.0,3.1,43.0,4.5,'11111222,11111222,11111222' 
TCOON,ioos:station:TCOON:031:1,2014-05-01T19:30:00Z,28.4073,-96.7122,0.0,3.8,9.0,5.2,'11111222,11111222,11111222' 
TCOON,ioos:station:TCOON:031:1,2014-05-01T19:36:00Z,28.4073,-96.7122,0.0,3.4,358.0,5.1,'11111222,11111222,11111222' 
TCOON,ioos:station:TCOON:031:1,2014-05-01T19:42:00Z,28.4073,-96.7122,0.0,3.0,22.0,6.6,'11111222,11111222,11111222' 
TCOON,ioos:station:TCOON:031:1,2014-05-01T19:48:00Z,28.4073,-96.7122,0.0,3.2,18.0,5.4,'11111222,11111222,11111222' 
TCOON,ioos:station:TCOON:031:1,2014-05-01T19:54:00Z,28.4073,-96.7122,0.0,3.4,38.0,6.1,'11111222,11111222,11111222' 
TCOON,ioos:station:TCOON:031:1,2014-05-01T20:00:00Z,28.4073,-96.7122,0.0,3.4,38.0,6.1,'1111122,1111122,1111122' 
TCOON,ioos:station:TCOON:031:1,2014-05-01T20:06:00Z,28.4073,-96.7122,0.0,3.2,31.0,5.1,'11111222,11111222,11111222' 
TCOON,ioos:station:TCOON:031:1,2014-05-01T20:12:00Z,28.4073,-96.7122,0.0,3.3,34.0,4.7,'11111222,11111222,11111222' 
TCOON,ioos:station:TCOON:031:1,2014-05-01T20:18:00Z,28.4073,-96.7122,0.0,3.8,26.0,5.3,'11111222,11111222,11111222' 
TCOON,ioos:station:TCOON:031:1,2014-05-01T20:24:00Z,28.4073,-96.7122,0.0,3.6,31.0,4.9,'11111222,11111222,11111222' 
TCOON,ioos:station:TCOON:031:1,2014-05-01T20:30:00Z,28.4073,-96.7122,0.0,3.7,34.0,5.6,'11111222,11111222,11111222' 